{"data":{"norad_id":33373,"intl_designator":"2008-044A","name":"NIMIQ 4","alt_names":[],"object_type":"PAYLOAD","status":"ACTIVE","operator":null,"country":"CA","launch_date":"2008-09-19","launch_site_code":"TYMSC","launch_vehicle":null,"mission":null,"orbit_class":"UNKNOWN","rcs_meters":10.0118,"size_class":null,"mass_kg":null,"dimensions":null,"purposes":["comms"],"wikipedia_slug":null,"has_3d_model":false,"image_url":null,"decayed_at":null,"tle_current":{"epoch":"2026-09-20T04:35:38.726016Z","epoch_age_seconds":44983,"freshness":"FRESH","line1":"1 33373U 08044A   26263.19142044 -.00000224  00000+0  00000+0 0  9996","line2":"2 33373   0.0325  96.9429 0001948  91.3299 157.7264  1.00269755 65935","mean_motion":1.00269755,"eccentricity":0.0001948,"inclination_deg":0.0325,"raan_deg":96.9429,"arg_perigee_deg":91.3299,"mean_anomaly_deg":157.7264,"bstar":0,"rev_number":6593,"period_min":1436.1259783671,"perigee_km":35778.950252838,"apogee_km":35795.377854128,"semimajor_km":42165.301053483,"source":"CELESTRAK","updated_at":"2026-09-20T09:00:35.134134Z"}}}